{"data":{"norad_id":63585,"intl_designator":"2025-076S","name":"STARLINK-33813","alt_names":[],"object_type":"PAYLOAD","status":"ACTIVE","operator":null,"country":"US","launch_date":"2025-04-14","launch_site_code":"AFETR","launch_vehicle":null,"mission":null,"orbit_class":"UNKNOWN","rcs_meters":null,"size_class":null,"mass_kg":null,"dimensions":null,"purposes":["comms"],"wikipedia_slug":null,"has_3d_model":false,"image_url":null,"decayed_at":null,"tle_current":{"epoch":"2026-05-24T23:37:31.384992Z","epoch_age_seconds":66593,"freshness":"FRESH","line1":"1 63585U 25076S   26144.98439103  .00010397  00000+0  38673-3 0  9990","line2":"2 63585  42.9983 250.3905 0001016 271.3047  88.7688 15.27585522 63501","mean_motion":15.27585522,"eccentricity":0.0001016,"inclination_deg":42.9983,"raan_deg":250.3905,"arg_perigee_deg":271.3047,"mean_anomaly_deg":88.7688,"bstar":0.00038673,"rev_number":6350,"period_min":94.266407953034,"perigee_km":482.33546640751,"apogee_km":483.72965606235,"semimajor_km":6861.1695612349,"source":"CELESTRAK","updated_at":"2026-05-25T13:38:20.048949Z"}}}